Regional Weather Roundup
Issued by NWS

Home | Current Version | Previous Version | Graphics & Text | Print | Product List | Glossary On
Versions: 1 2 3 4 5 6 7 8 9 10 11 12 13 14 15 16 17 18 19 20 21 22 23 24 25 26 27 28 29 30 31 32 33 34 35 36 37 38 39 40 41 42 43 44 45 46 47 48 49 50
000
ASUS43 KBIS 300310
RWRND

NORTH DAKOTA REGIONAL WEATHER ROUNDUP
NATIONAL WEATHER SERVICE BISMARCK ND
1000 PM CDT TUE JUL 29 2014

NOTE: "FAIR" INDICATES FEW OR NO CLOUDS BELOW 12,000 FEET WITH NO
SIGNIFICANT WEATHER AND/OR OBSTRUCTIONS TO VISIBILITY.


NDZ001>003-009>011-017-300400-
NORTHWEST NORTH DAKOTA

CITY           SKY/WX    TMP DP  RH WIND       PRES   REMARKS
WILLISTON      CLEAR     73  57  57 NE7       30.16R
MINOT          PTCLDY    67  60  78 CALM      30.14R
MINOT AFB      CLEAR     64  64  99 SW2       30.13
$$

NDZ018>021-031>035-040>046-300400-
SOUTHWEST NORTH DAKOTA

CITY           SKY/WX    TMP DP  RH WIND       PRES   REMARKS
BISMARCK       PTCLDY    68  58  70 E7        30.14R
DICKINSON      CLEAR     63  56  78 E6        30.15R
GARRISON         N/A     67  62  84 E5        30.15R
HETTINGER ARPT PTCLDY    69  51  52 E12       30.16R
$$

NDZ004>008-012>016-024-026-027-054-300400-
NORTHEAST NORTH DAKOTA

CITY           SKY/WX    TMP DP  RH WIND       PRES   REMARKS
GRAND FORKS    CLEAR     63  57  81 NW3       30.09R
GRND FRKS AFB  CLEAR     62  60  93 NW2       30.11R
DEVILS LAKE    CLEAR     66  54  63 CALM      30.12R
$$

NDZ022-023-025-028>030-036>039-047>053-300400-
SOUTHEAST NORTH DAKOTA

CITY           SKY/WX    TMP DP  RH WIND       PRES   REMARKS
FARGO          CLEAR     64  55  72 CALM      30.09R
JAMESTOWN      CLEAR     63  57  81 N3        30.13R
$$



USA.gov is the U.S. government's official web portal to all federal, state and local government web resources and services.